Flag for U.S.A. Weather past 2 weeks in Las Cruces, New Mexico, U.S.A.

Now
56 °F

Clear.


Feels Like: 53 °F
Forecast: 49 / 78 °F
Wind: 9 mph from Southeast

Location: Las Cruces International


UV Index: 5 (Moderate)

Visibility: 10 mi


Pressure: 30.11 "Hg

Humidity: 39%

Dew point: 31 °F

Location of Las CrucesLocation

Historic Weather in Las Cruces

°F

Las Cruces temperature yesterday

Maximum temperature yesterday: 78 °F (at 3:55 PM)
Minimum temperature yesterday: 49 °F (at 6:15 AM)
Average temperature yesterday: 65 °F

Past Weeks' High & Low Weather Summary

 TemperatureHumidityPressure
High87 °F (Apr 10, 2:55 PM)47% (Apr 3, 6:55 AM)30.35 "Hg (Apr 3, 6:55 AM)
Low33 °F (Apr 4, 6:15 AM)2% (Apr 10, 2:55 PM)29.78 "Hg (Apr 13, 4:55 PM)
Average61 °F16%30.03 "Hg
* Reported Apr 3 3:15 AM — Apr 18 3:55 AM, Las Cruces, Weather by CustomWeather, © 2014

Note: Actual official high and low records may vary slightly from our data, if they occured in-between our weather recording intervals... More about our weather records

Advertising

Historic Weather Conditions — Data for Previous 24 hours

 ConditionsComfort  
Time TempWeatherWind HumidityBarometerVisibility
3:55 AM
Apr 18
58 °FClear.13 mph33%30.10 "Hg10 mi
3:35 AM59 °FClear.10 mph31%30.10 "Hg10 mi
3:15 AM59 °FClear.12 mph31%30.10 "Hg10 mi
2:55 AM59 °FClear.9 mph31%30.10 "Hg10 mi
2:35 AM59 °FClear.9 mph31%30.10 "Hg10 mi
2:15 AM60 °FClear.9 mph30%30.11 "Hg10 mi
1:55 AM59 °FClear.9 mph30%30.11 "Hg10 mi
1:35 AM59 °FClear.9 mph30%30.11 "Hg10 mi
1:15 AM59 °FClear.8 mph30%30.11 "Hg10 mi
12:55 AM59 °FClear.7 mph30%30.12 "Hg10 mi
12:35 AM60 °FClear.6 mph28%30.12 "Hg10 mi
12:15 AM61 °FClear.6 mph28%30.12 "Hg10 mi
11:55 PM
Apr 17
62 °FClear.9 mph27%30.12 "Hg10 mi
11:35 PM63 °FClear.10 mph26%30.12 "Hg10 mi
11:15 PM64 °FClear.13 mph24%30.12 "Hg10 mi
10:55 PM64 °FClear.12 mph23%30.12 "Hg10 mi
10:35 PM65 °FClear.14 mph21%30.12 "Hg10 mi
10:15 PM65 °FClear.10 mph19%30.11 "Hg10 mi
9:55 PM66 °FClear.12 mph18%30.11 "Hg10 mi
9:15 PM67 °FClear.7 mph15%30.09 "Hg10 mi
8:55 PM67 °FClear.6 mph15%30.08 "Hg10 mi
8:35 PM68 °FSunny.6 mph14%30.07 "Hg10 mi
8:15 PM69 °FSunny.6 mph14%30.07 "Hg10 mi
7:55 PM70 °FSunny.5 mph14%30.06 "Hg10 mi
7:15 PM74 °FSunny.8 mph13%30.05 "Hg10 mi
6:55 PM75 °FSunny.8 mph12%30.04 "Hg10 mi
6:35 PM76 °FSunny.8 mph12%30.04 "Hg10 mi
6:15 PM77 °FSunny.9 mph12%30.04 "Hg10 mi
5:55 PM78 °FSunny.8 mph11%30.04 "Hg10 mi
5:15 PM77 °FSunny.5 mph11%30.04 "Hg10 mi
4:55 PM78 °FSunny.8 mph11%30.05 "Hg10 mi
4:35 PM78 °FSunny.12 mph11%30.05 "Hg10 mi
4:15 PM78 °FSunny.10 mph12%30.06 "Hg10 mi
3:55 PM78 °FSunny.9 mph12%30.06 "Hg10 mi
3:15 PM76 °FSunny.No wind12%30.07 "Hg10 mi
2:55 PM75 °FSunny.5 mph12%30.07 "Hg10 mi
2:35 PM76 °FSunny.3 mph12%30.08 "Hg10 mi
2:15 PM76 °FSunny.No wind12%30.08 "Hg10 mi
1:55 PM76 °FSunny.6 mph12%30.08 "Hg10 mi
1:35 PM75 °FSunny.8 mph12%30.09 "Hg10 mi
1:15 PM74 °FSunny.6 mph13%30.09 "Hg10 mi
12:55 PM74 °FSunny.5 mph13%30.10 "Hg10 mi
12:35 PM73 °FSunny.3 mph13%30.10 "Hg10 mi
12:15 PM72 °FSunny.8 mph14%30.10 "Hg10 mi
11:55 AM71 °FSunny.9 mph14%30.11 "Hg10 mi
10:55 AM68 °FSunny.7 mph17%30.11 "Hg10 mi
10:15 AM67 °FSunny.13 mph18%30.09 "Hg10 mi
9:55 AM66 °FSunny.12 mph19%30.09 "Hg10 mi
9:15 AM64 °FSunny.5 mph21%30.08 "Hg10 mi
8:55 AM65 °FSunny.18 mph20%30.06 "Hg10 mi
8:35 AM63 °FSunny.17 mph21%30.04 "Hg10 mi
8:15 AM62 °FSunny.10 mph20%30.04 "Hg10 mi
7:55 AM60 °FSunny.7 mph23%30.04 "Hg10 mi
7:35 AM54 °FClear.3 mph24%30.03 "Hg10 mi
7:15 AM51 °FClear.No wind23%30.02 "Hg10 mi
6:55 AM49 °FClear.No wind18%30.01 "Hg10 mi
6:15 AM49 °FClear.7 mph14%29.99 "Hg10 mi
5:55 AM49 °FClear.10 mph14%29.99 "Hg10 mi
5:15 AM50 °FClear.9 mph13%29.97 "Hg10 mi
Weather by CustomWeather, © 2014

See weather overview